Powrót do katalogu

SL-16 DEB

AktywnyLEO
NORAD 22441·DEBRIS·🇷🇺 Russia

Wystrzelony Dec 25, 1992 z Baikonur Cosmodrome

Loading…

Następne Przeloty (najbliższe 24 godziny)

TLE

ŚwieżeSource: Space-Track

Epoka: Sep 14, 2026, 00:46 UTC

1 22441U 92093EJ  26257.03206051  .00000545  00000-0  35561-3 0  9992
2 22441  71.1940  86.4399 0081690 146.5611  15.1447 14.04976869722630

Śledź SL-16 DEB w czasie rzeczywistym z AllMySat

Download on the App Store